Dewpoint
55 52 46 39 26 20 16 18 17 14 16 14 22 23 20 21 36 33 64 67 68 69 71 72 72 72 72 73 73 73 73 73 73 73 73 73 73 73 73 73 74 74 74 73 72 72 72 72 72
47 45 40 33 22 16 15 18 15 16 17 18 18 21 20 24 52 62 63 67 67 69 70 71 72 72 72 72 72 73 73 73 73 73 73 73 73 73 73 73 73 73 74 73 72 72 72 72 71
43 41 33 30 22 16 13 16 17 17 17 16 18 18 26 36 57 61 64 67 68 69 70 70 71 72 72 72 72 72 73 73 73 73 73 73 73 73 73 72 72 73 73 73 72 72 72 71 70
37 37 34 26 22 21 17 16 18 17 17 16 16 15 29 45 55 61 66 67 67 68 69 70 70 71 72 72 72 72 72 72 72 73 73 73 73 73 73 72 72 73 73 73 72 72 70 70 69
29 32 28 26 24 23 23 22 22 20 19 17 17 18 24 50 58 64 64 64 65 67 69 70 69 70 71 72 72 72 72 72 72 72 72 73 73 73 72 71 72 72 71 70 70 70 69 70 69
24 28 26 24 22 24 24 23 21 21 20 18 17 19 20 53 59 62 63 63 65 67 68 69 70 70 71 71 71 71 71 71 71 72 72 72 72 72 71 71 70 70 69 69 69 69 69 68 69
24 28 27 25 24 24 24 25 22 21 22 17 19 20 28 48 56 59 64 66 67 67 68 68 69 70 70 69 69 69 70 71 71 71 71 71 71 70 70 70 70 69 69 68 68 68 68 67 68
34 33 31 28 26 26 26 25 24 23 18 24 18 16 18 49 57 63 66 67 67 66 67 67 67 68 68 69 68 69 70 70 70 70 70 69 70 70 69 69 69 68 68 68 68 67 68 66 66
33 31 30 31 31 30 31 28 28 21 20 23 23 18 37 52 58 61 65 67 67 67 66 67 67 67 67 67 68 69 69 69 69 69 68 67 68 68 68 67 68 67 66 67 67 66 66 66 66
25 27 30 32 32 29 29 29 27 21 21 24 23 28 41 49 55 57 61 64 66 66 66 66 66 66 66 68 67 67 68 68 68 68 67 67 66 66 66 65 66 65 65 66 67 66 66 66 66
23 23 25 23 23 25 27 28 28 22 20 23 25 26 29 38 45 52 56 62 64 67 67 67 66 67 67 67 66 66 68 67 66 66 65 65 66 66 65 64 65 64 65 65 66 66 65 65 64
21 22 21 20 21 20 19 20 20 19 22 23 23 22 23 25 38 42 51 54 63 66 67 68 67 67 67 68 66 66 66 66 66 65 65 66 65 64 65 64 63 64 64 64 64 64 65 65 64
21 23 23 22 21 20 19 18 19 18 18 19 17 17 18 21 27 34 38 44 58 64 67 67 68 68 68 67 67 66 66 66 66 65 66 66 64 63 63 62 63 63 64 64 63 63 64 64 64
16 14 16 18 18 20 19 19 18 19 19 17 17 17 18 19 20 25 31 37 41 63 66 67 66 68 67 67 66 66 67 66 65 65 66 65 64 63 62 61 63 63 63 63 63 62 63 64 64
26 23 23 21 18 17 17 13 13 16 17 16 16 16 16 17 20 20 22 30 36 42 64 66 66 67 67 66 66 66 65 66 66 65 65 65 64 63 62 61 62 63 63 63 64 63 62 62 63
22 24 20 21 19 18 15 15 15 14 14 14 14 14 15 16 17 17 21 24 30 33 60 66 66 66 66 66 66 65 65 65 65 65 65 65 64 64 63 62 61 63 64 63 63 62 61 61 61
22 20 20 19 19 18 17 17 16 18 17 16 18 18 20 21 22 20 20 22 24 26 49 65 66 66 66 65 65 65 64 64 63 64 64 64 64 64 63 63 63 63 63 63 62 62 61 60 60
19 20 18 16 16 17 16 15 16 15 15 16 15 15 15 16 18 21 24 24 24 24 51 65 65 66 65 65 64 64 64 63 64 63 64 63 64 63 63 62 62 63 63 62 62 61 60 60 60
19 18 17 17 16 17 14 14 14 16 16 16 19 19 18 16 18 19 26 28 27 27 57 63 65 65 65 64 63 62 62 62 62 62 62 63 63 63 62 61 62 63 62 61 60 60 59 60 61
18 17 16 17 16 15 14 13 15 16 16 18 19 21 21 20 20 20 20 29 30 32 55 63 64 64 64 64 62 61 61 61 63 61 61 61 61 61 61 61 62 62 61 61 60 59 59 59 61
19 18 18 18 19 18 16 17 19 21 23 24 24 28 42 42 29 22 20 25 30 38 60 63 63 63 63 63 61 60 59 59 60 61 59 60 61 61 61 62 62 61 61 60 61 60 59 58 59
17 22 21 20 19 15 23 18 19 22 22 23 24 44 43 43 45 36 38 41 41 42 59 62 63 63 62 61 60 59 58 57 59 60 58 59 60 60 61 62 61 61 61 60 60 60 59 59 57
19 23 23 21 21 21 19 20 18 28 39 41 43 44 44 43 43 45 47 48 50 57 60 62 63 62 61 61 60 59 58 57 58 58 58 58 59 60 61 61 61 61 61 61 60 60 59 59 57
24 25 25 25 24 20 19 19 22 36 38 37 42 43 44 43 42 44 46 47 47 51 61 62 62 61 61 60 60 59 58 57 57 58 58 59 59 60 61 61 61 61 61 60 60 60 59 59 58
20 23 21 19 18 18 20 21 25 37 39 39 41 43 43 42 41 42 43 45 47 50 53 62 62 60 61 59 59 58 58 57 57 57 58 59 59 59 60 61 61 61 61 61 61 60 60 59 58
21 23 22 18 17 14 21 20 32 39 39 39 44 42 41 41 40 41 42 43 46 49 54 62 61 60 59 59 58 58 58 57 57 58 59 58 58 58 59 60 60 60 60 60 60 60 60 59 59
24 23 23 23 22 22 21 31 37 38 38 41 44 41 38 37 38 39 40 41 43 46 52 59 61 60 59 59 58 58 58 57 57 58 58 58 58 57 57 58 58 59 59 59 59 60 59 59 59
26 29 21 25 19 19 20 23 31 35 37 39 40 39 36 36 36 37 38 39 43 45 48 54 59 59 59 59 59 58 57 57 58 58 57 58 58 58 57 57 58 58 59 59 59 59 59 58 58
20 23 29 28 27 21 20 23 38 37 38 40 37 37 35 34 35 35 36 38 41 43 45 49 52 59 59 59 59 57 57 58 59 58 58 58 58 58 57 57 58 57 58 58 57 57 58 58 57
21 29 34 29 26 27 25 24 39 39 39 37 35 34 34 34 34 34 34 35 38 38 42 44 47 50 58 59 58 58 59 59 59 59 59 59 58 58 58 57 57 57 57 57 57 57 57 57 56
Lifted_Index
10 10 10 8 6 4 2 2 3 3 4 6 6 5 4 3 2 0 -2 -3 -3 -3 -3 -3 -4 -4 -4 -4 -4 -4 -4 -4 -4 -4 -4 -4 -5 -5 -5 -6 -6 -6 -6 -5 -5 -5 -5 -4 -4
11 11 10 8 6 3 2 2 3 3 5 6 6 5 4 3 1 -1 -2 -3 -3 -3 -3 -3 -4 -4 -4 -4 -4 -4 -4 -4 -4 -4 -4 -4 -4 -5 -5 -5 -6 -6 -6 -5 -5 -5 -5 -4 -4
12 11 10 8 5 3 2 3 4 4 5 6 6 5 4 3 -0 -2 -2 -3 -3 -3 -3 -3 -4 -4 -4 -4 -4 -4 -5 -4 -4 -4 -4 -4 -4 -5 -5 -5 -6 -6 -6 -6 -5 -5 -5 -4 -4
12 11 9 7 5 4 4 5 5 5 6 6 6 6 5 2 -1 -2 -3 -3 -3 -3 -3 -3 -4 -4 -4 -4 -5 -5 -5 -4 -4 -4 -5 -4 -4 -4 -4 -5 -5 -6 -6 -5 -5 -5 -4 -4 -4
11 10 8 6 5 5 6 6 6 6 6 6 6 6 5 1 -1 -2 -3 -2 -2 -3 -3 -3 -3 -4 -4 -4 -5 -5 -5 -4 -4 -4 -5 -5 -4 -4 -4 -4 -5 -5 -5 -5 -5 -4 -4 -4 -4
11 9 7 5 5 5 6 6 6 6 6 6 6 6 4 1 -2 -2 -2 -2 -2 -3 -3 -3 -3 -4 -4 -4 -4 -5 -5 -5 -4 -4 -5 -5 -4 -4 -4 -4 -5 -5 -4 -4 -4 -3 -3 -3 -3
10 9 8 6 6 6 6 6 6 6 6 6 5 5 3 -0 -2 -2 -3 -3 -3 -3 -3 -3 -3 -3 -3 -4 -4 -4 -5 -5 -4 -4 -4 -4 -4 -4 -4 -4 -4 -4 -3 -3 -3 -2 -2 -2 -2
10 10 8 7 7 6 6 6 6 6 6 6 6 5 3 -0 -2 -3 -3 -3 -3 -3 -3 -3 -3 -3 -3 -3 -3 -4 -4 -5 -4 -4 -4 -4 -4 -4 -4 -4 -4 -3 -3 -2 -2 -2 -1 -1 -1
10 9 8 7 7 7 7 6 6 6 6 6 6 5 2 -1 -2 -3 -3 -3 -3 -3 -3 -3 -3 -3 -3 -3 -3 -3 -4 -4 -4 -4 -4 -4 -4 -4 -4 -4 -4 -3 -2 -2 -2 -1 -1 -0 -0
10 9 9 8 8 8 8 7 6 6 6 6 6 5 3 -0 -2 -3 -3 -4 -4 -4 -3 -3 -3 -2 -3 -3 -3 -3 -4 -4 -4 -4 -4 -4 -4 -4 -4 -4 -3 -3 -2 -1 -1 -1 -0 0 0
10 10 10 10 9 9 8 8 7 6 6 6 6 5 4 2 -0 -2 -3 -4 -4 -4 -4 -4 -3 -3 -3 -3 -3 -3 -3 -4 -4 -4 -4 -4 -4 -4 -4 -4 -3 -2 -2 -1 -1 -1 -0 0 0
11 11 11 10 10 9 9 9 8 7 7 6 6 6 6 5 3 1 -1 -3 -4 -4 -5 -5 -5 -4 -4 -4 -3 -3 -3 -3 -3 -3 -3 -3 -3 -4 -4 -3 -3 -2 -2 -1 -0 -0 -0 0 0
11 11 11 10 10 10 9 9 9 8 7 7 6 5 5 5 5 4 2 -0 -2 -4 -5 -5 -6 -6 -5 -5 -4 -3 -3 -3 -3 -3 -3 -3 -3 -3 -3 -3 -2 -2 -2 -1 -0 0 0 0 0
10 10 10 10 9 9 9 9 9 9 8 7 6 5 4 4 4 4 4 2 0 -3 -5 -6 -6 -6 -6 -6 -5 -4 -4 -4 -3 -3 -4 -4 -4 -4 -3 -3 -2 -2 -2 -1 -0 0 0 0 0
9 9 9 8 8 8 8 8 9 9 8 7 6 5 5 4 4 4 3 4 3 0 -4 -6 -6 -6 -6 -6 -5 -5 -5 -5 -5 -4 -4 -4 -4 -4 -3 -3 -2 -2 -2 -1 -1 0 0 0 0
8 8 7 7 8 8 7 7 8 8 7 6 6 5 5 4 4 3 3 4 4 2 -2 -5 -6 -6 -6 -6 -5 -5 -5 -5 -6 -5 -5 -5 -5 -4 -3 -3 -2 -2 -2 -1 -1 -0 0 1 0
7 7 7 7 7 7 6 6 7 7 6 5 5 5 4 4 4 3 3 3 3 3 -0 -5 -6 -6 -6 -6 -5 -5 -5 -5 -6 -6 -6 -5 -5 -4 -3 -3 -3 -2 -2 -2 -1 -0 0 0 0
6 6 6 6 6 6 6 6 6 6 5 5 5 5 4 3 3 3 2 2 2 3 -0 -4 -6 -6 -6 -6 -5 -5 -5 -6 -6 -6 -6 -5 -5 -4 -3 -3 -3 -3 -2 -2 -1 -0 0 1 1
7 6 6 6 5 5 5 5 5 5 5 4 4 4 3 3 2 2 1 1 2 2 -1 -4 -6 -6 -6 -6 -5 -5 -5 -5 -6 -6 -6 -5 -4 -4 -3 -3 -3 -3 -2 -2 -1 -0 0 1 1
6 5 5 5 5 5 5 5 5 4 4 4 3 2 2 1 1 1 1 2 2 1 -2 -4 -5 -5 -5 -5 -5 -5 -5 -5 -5 -6 -6 -5 -4 -3 -3 -3 -3 -2 -2 -1 -1 -0 1 1 1
4 4 4 4 4 4 4 4 4 4 3 3 2 1 0 -0 0 0 1 2 2 1 -3 -5 -5 -5 -5 -5 -5 -5 -5 -5 -4 -5 -5 -4 -3 -3 -3 -3 -2 -2 -1 -1 -1 -0 1 1 2
4 4 4 4 4 3 3 3 3 3 3 2 1 -0 -1 -1 -1 -0 1 1 1 -0 -3 -5 -5 -5 -5 -5 -6 -6 -5 -5 -4 -4 -4 -3 -3 -2 -2 -2 -2 -1 -1 -1 -1 0 1 1 2
4 3 3 3 3 3 2 2 3 2 2 1 0 -0 -1 -1 -1 -1 -0 -0 -1 -3 -5 -5 -5 -5 -5 -6 -6 -6 -6 -5 -4 -4 -3 -3 -2 -2 -2 -2 -1 -1 -1 -0 -0 0 1 1 2
4 3 3 3 2 2 2 2 2 2 1 1 0 0 -0 -1 -1 -2 -1 -1 -2 -4 -6 -6 -5 -5 -6 -6 -7 -7 -6 -5 -4 -3 -3 -2 -1 -1 -1 -1 -1 -1 -1 -0 0 0 1 1 1
3 3 2 1 1 1 2 2 2 1 1 1 2 1 1 -0 -1 -2 -2 -2 -2 -4 -6 -6 -6 -6 -6 -7 -7 -6 -6 -5 -4 -3 -2 -2 -1 -1 -1 -1 -1 -1 -1 -1 -0 0 1 1 1
2 2 1 0 1 1 1 1 1 1 1 2 2 2 2 1 0 -1 -2 -2 -2 -3 -5 -6 -6 -6 -6 -6 -6 -6 -5 -4 -4 -3 -2 -2 -1 -1 -1 -1 -1 -1 -1 -1 -0 1 1 1 1
1 1 0 0 0 1 1 1 0 0 1 1 2 2 2 2 1 -0 -1 -2 -3 -3 -5 -6 -6 -5 -6 -6 -6 -5 -5 -4 -4 -3 -3 -2 -1 -1 -1 -1 -1 -1 -1 -0 1 1 1 1 1
0 0 -0 0 0 0 1 0 -0 0 1 1 2 2 3 2 1 0 -1 -1 -2 -3 -3 -4 -5 -5 -5 -5 -5 -5 -4 -4 -3 -3 -3 -2 -1 -1 -0 -0 -0 -0 -0 0 1 1 1 1 1
-0 -0 -0 -0 -0 0 1 1 0 0 1 1 1 2 2 2 1 1 0 -0 -1 -2 -2 -3 -3 -3 -3 -4 -4 -4 -4 -3 -3 -3 -3 -2 -1 -1 -0 -0 -0 0 0 1 1 2 2 2 2
0 -0 -0 -0 -0 0 1 1 0 0 0 1 1 2 2 2 2 1 1 0 -0 -1 -1 -1 -2 -2 -2 -3 -3 -4 -3 -3 -3 -3 -2 -2 -1 -1 -0 -0 0 0 1 1 1 2 2 2 2